Location: Westminster
(33.3626°N, 96.4619°W)
Time: 21:45:34
(UTC+00:00)

OAO 3 Rocket - Pass Details

Date: 10 July 2022
Orbit: 627 x 681 km, 35.0° (Epoch: 14 August)

Event Time Altitude Azimuth Distance (km) Brightness Sun altitude
Rises 02:47:54 0° 228° (SW) 2,932 6.7 -13.1°
Reaches altitude 10° 02:50:22 10° 219° (SW) 2,034 5.7 -13.5°
Maximum altitude 02:54:42 36° 153° (SSE) 1,040 3.7 -14.2°
Enters shadow 02:57:32 19° 99° (E) 1,555 4.6 -14.6°
